Starlink 5586

operational
NORAD ID: 55376 Int'l Des: 2023-013 Owner: SPXS Country: US Constellation: starlink
LEOCIRCULAR

Über Starlink 5586

Beschreibung wird geladen...

Live-Position

3D-Globus wird geladen...

Nächste Überflüge

Höhenverlauf

Altitude vs Time

uPlot chart will show altitude changes over time

Zweizeiliger Elementsatz

1 55376U 23013AX 26063.08663464 .00000454 00000-0 48639-4 0 9996
2 55376 43.0029 318.0078 0000839 270.7451 89.3295 15.02534431171013
Epoch: 4. März 2026 • Age: 22 hours

Aktueller Status

Höhe 558.9 km
Geschwindigkeit 7.59 km/s
Subsatellitenpunkt 20.91°N, 21.43°W
Startdatum 26. Jan. 2023
Alter 3.1 years
Typ internet

Technische Details

Klassifizierung Payload
Masse 305.00 kg
Trockenmasse 290.00 kg
Gesamtmasse 305.00 kg
Länge 0.20 m
Durchmesser 2.80 m
Spannweite 9.00 m
Form Box + pan
Hersteller SPXS
Bus-Typ Starlink
Phasenstatus In Orbit
Besitzer/Staat SPXS/US

Große Konstellationen

Loading constellations...